Location: Betra
(48.4113°N, 8.6634°E)
Time: 21:24:48
(UTC+00:00)

Cosmos 1300 - Pass Details

Date: 23 May 2024
Orbit: 465 x 468 km, 82.5° (Epoch: 16 June)

Event Time Altitude Azimuth Distance (km) Brightness Sun altitude
Rises 00:54:28 0° 336° (NNW) 2,516 6.9 -17.9°
Reaches altitude 10° 00:56:57 10° 319° (NW) 1,633 5.5 -17.8°
Maximum altitude 00:59:34 20° 272° (W) 1,157 4.2 -17.6°
Enters shadow 00:59:37 20° 271° (W) 1,157 4.2 -17.6°
